User: anonymous   Login
Location: Unspecified
(0.0000°N, 0.0000°E)
Time: 08:32:07
(UTC+00:00)
Language:

AO-73 - Orbit

View from above orbital plane
View from above orbital plane
View from above satellite
View from above satellite

Ground track
Ground track

The orbit data is extracted from the following two-line orbital elements,

1 39444U 13066AE  19289.75573338 +.00000249 +00000-0 +36967-4 0  9990
2 39444 097.5596 298.5683 0057897 355.2081 004.8571 14.81990065317120
Epoch (UTC): 16 October 2019 18:08:15
Eccentricity: 0.0057897
inclination: 97.5596°
perigee height: 582 km
apogee height: 663 km
right ascension of ascending node: 298.5683°
argument of perigee: 355.2081°
revolutions per day: 14.81990065
mean anomaly at epoch: 4.8571°
orbit number at epoch: 31712

The dashed part of the orbit path shows where the satellite is in the earth's shadow,  

DLR